Preview of NWS' New Version of Forecast
This preview is not operational and should not be used for support decisions.

Regional Weather Roundup (RWR)

Issued by National Weather Service (NWS)

                            
000
ASUS45 KCYS 210510
RWRWY 

WYOMING REGIONAL WEATHER ROUNDUP
NATIONAL WEATHER SERVICE CHEYENNE WY
1000 PM MST WED FEB 20 2019

NOTE:  "FAIR" INDICATES FEW OR NO CLOUDS BELOW 12,000 FEET
WITH NO SIGNIFICANT WEATHER AND/OR OBSTRUCTIONS TO VISIBILITY.

WYZ001-210600-
YELLOWSTONE NATIONAL PARK
  
CITY           SKY/WX    TMP DP  RH WIND       PRES   REMARKS
LK YELLOWSTONE   N/A     -1  -6  79 CALM      29.59R                  
W YELLOWSTONE  NOT AVBL                                               

$$
WYZ002>013-054>058-071-098>099-210600-
NORTHERN WYOMING
  
CITY           SKY/WX    TMP DP  RH WIND       PRES   REMARKS
JACKSON        FLURRIES  10   3  73 NE5       29.64R WCI   2          
CODY           FAIR      14   6  70 CALM      29.70R                  
GREYBULL       CLOUDY    14   8  77 W5        29.74R WCI   6          
WORLAND        CLOUDY    14   6  70 CALM      29.71R                  
SHERIDAN       FAIR       7   2  80 S5        29.75R WCI  -2          
BUFFALO        MOCLDY    12   5  73 SW6       29.70R WCI   3          
GILLETTE       MOCLDY     1  -3  83 CALM      29.73R                  
HULETT         FAIR      10   3  72 MISG      29.73                   
NEWCASTLE        N/A     10   1  67 N9        29.73  WCI  -2          

$$
WYZ014>020-022>026-101>103-210600-
CENTRAL WYOMING
  
CITY           SKY/WX    TMP DP  RH WIND       PRES   REMARKS
BIG PINEY      CLOUDY    -7 -11  83 CALM      29.62S                  
PINEDALE       FAIR      -2  -6  84 NW5       29.63  WCI -12          
DUBOIS         CLOUDY     9   0  66 NW5       29.56  WCI   0          
LANDER         FAIR      14  -2  49 N8        29.62R WCI   3          
RIVERTON       CLOUDY    12   1  61 N5        29.63R WCI   4          
CASPER         CLOUDY    13   5  70 NW6       29.68R WCI   4          
DOUGLAS        FAIR      13   7  77 N7        29.71R WCI   3          

$$
WYZ021-027>030-104>119-210600-
SOUTHERN WYOMING
  
CITY           SKY/WX    TMP DP  RH WIND       PRES   REMARKS
EVANSTON       LGT SNOW  10   6  84 E6        29.58S FOG     WCI   0  
ROCK SPRINGS   FAIR       7   0  73 S6        29.63R WCI  -3          
DIXON          FAIR       6  -1  74 E7        29.71S WCI  -6          
RAWLINS        FAIR      10   3  73 SW6       29.65R WCI   0          
SARATOGA       FAIR      12   1  62 S10       29.66R WCI  -1          
LARAMIE        FAIR      10  -2  58 S7        29.64R WCI  -1          
CHEYENNE       FAIR      15   1  53 CALM      29.69R                  
TORRINGTON     FAIR      21   8  57 NW6       29.75R WCI  13          
PINE BLUFFS    FAIR       5   0  78 W7        29.74R WCI  -7          

$$